TimeCDT,TemperatureF,Dew PointF,Humidity,Sea Level PressureIn,VisibilityMPH,Wind Direction,Wind SpeedMPH,Gust SpeedMPH,PrecipitationIn,Events,Conditions,WindDirDegrees,DateUTC
12:15 AM,47.8,39.4,72,29.92,10.0,ENE,3.5,-,N/A,,Clear,60,2013-04-12 05:15:00
12:35 AM,49.8,39.6,68,29.92,10.0,Calm,Calm,-,N/A,,Clear,0,2013-04-12 05:35:00
12:55 AM,49.1,39.4,69,29.92,10.0,Calm,Calm,-,N/A,,Clear,0,2013-04-12 05:55:00
1:15 AM,47.3,39.4,74,29.92,10.0,Calm,Calm,-,N/A,,Clear,0,2013-04-12 06:15:00
1:35 AM,48.0,39.2,72,29.93,10.0,Calm,Calm,-,N/A,,Clear,0,2013-04-12 06:35:00
1:55 AM,43.7,38.5,82,29.93,10.0,Calm,Calm,-,N/A,,Clear,0,2013-04-12 06:55:00
2:15 AM,45.7,39.7,80,29.92,10.0,Calm,Calm,-,N/A,,Clear,0,2013-04-12 07:15:00
2:35 AM,42.3,38.8,88,29.92,10.0,Calm,Calm,-,N/A,,Clear,0,2013-04-12 07:35:00
2:55 AM,42.6,38.5,85,29.91,10.0,Calm,Calm,-,N/A,,Clear,0,2013-04-12 07:55:00
3:15 AM,41.7,38.3,88,29.91,10.0,Calm,Calm,-,N/A,,Clear,0,2013-04-12 08:15:00
3:35 AM,42.6,38.5,85,29.91,10.0,Calm,Calm,-,N/A,,Clear,0,2013-04-12 08:35:00
3:55 AM,42.4,39.2,88,29.90,10.0,Calm,Calm,-,N/A,,Clear,0,2013-04-12 08:55:00
4:15 AM,42.4,39.0,88,29.90,10.0,Calm,Calm,-,N/A,,Clear,0,2013-04-12 09:15:00
4:35 AM,41.5,38.1,88,29.90,10.0,Calm,Calm,-,N/A,,Clear,0,2013-04-12 09:35:00
4:55 AM,40.3,37.4,89,29.91,10.0,NW,3.5,-,N/A,,Clear,320,2013-04-12 09:55:00
5:15 AM,40.6,37.6,89,29.91,10.0,Calm,Calm,-,N/A,,Clear,0,2013-04-12 10:15:00
5:35 AM,40.8,37.6,88,29.91,10.0,WNW,3.5,-,N/A,,Clear,300,2013-04-12 10:35:00
5:55 AM,40.1,37.0,89,29.91,10.0,Calm,Calm,-,N/A,,Clear,0,2013-04-12 10:55:00
6:15 AM,40.3,37.8,91,29.92,10.0,Calm,Calm,-,N/A,,Clear,0,2013-04-12 11:15:00
6:35 AM,39.2,36.5,90,29.93,10.0,Calm,Calm,-,N/A,,Clear,0,2013-04-12 11:35:00
6:55 AM,38.5,36.0,91,29.93,10.0,Calm,Calm,-,N/A,,Clear,0,2013-04-12 11:55:00
7:15 AM,37.8,36.0,93,29.94,10.0,Calm,Calm,-,N/A,,Clear,0,2013-04-12 12:15:00
7:35 AM,39.4,36.9,91,29.95,10.0,Calm,Calm,-,N/A,,Clear,0,2013-04-12 12:35:00
7:55 AM,40.8,38.7,92,29.96,10.0,Calm,Calm,-,N/A,,Clear,0,2013-04-12 12:55:00
8:15 AM,43.5,39.7,87,29.97,10.0,Calm,Calm,-,N/A,,Clear,0,2013-04-12 13:15:00
8:35 AM,47.8,43.2,84,29.97,10.0,Calm,Calm,-,N/A,,Clear,0,2013-04-12 13:35:00
8:55 AM,52.3,42.1,68,29.97,10.0,Calm,Calm,-,N/A,,Clear,0,2013-04-12 13:55:00
9:15 AM,54.7,43.2,65,29.98,10.0,Calm,Calm,-,N/A,,Clear,0,2013-04-12 14:15:00
9:35 AM,57.6,43.0,58,29.98,10.0,Calm,Calm,-,N/A,,Clear,0,2013-04-12 14:35:00
9:55 AM,61.2,42.8,51,29.99,10.0,SSW,8.1,-,N/A,,Clear,200,2013-04-12 14:55:00
10:15 AM,63.7,41.9,45,29.99,10.0,South,9.2,-,N/A,,Clear,170,2013-04-12 15:15:00
10:35 AM,63.9,42.6,46,30.00,10.0,South,6.9,-,N/A,,Clear,180,2013-04-12 15:35:00
10:55 AM,65.3,43.7,46,30.00,10.0,South,6.9,-,N/A,,Clear,180,2013-04-12 15:55:00
11:15 AM,66.2,43.9,44,30.00,10.0,South,8.1,-,N/A,,Clear,180,2013-04-12 16:15:00
11:35 AM,67.5,43.5,42,29.99,10.0,South,9.2,-,N/A,,Clear,190,2013-04-12 16:35:00
11:55 AM,68.7,43.5,40,29.99,10.0,SSW,6.9,-,N/A,,Clear,200,2013-04-12 16:55:00
12:15 PM,70.2,43.5,38,29.98,10.0,SSE,4.6,-,N/A,,Clear,150,2013-04-12 17:15:00
12:35 PM,71.6,43.2,36,29.97,10.0,South,6.9,-,N/A,,Clear,190,2013-04-12 17:35:00
12:55 PM,72.5,41.4,32,29.96,10.0,SSE,5.8,-,N/A,,Clear,160,2013-04-12 17:55:00
1:15 PM,74.7,40.8,30,29.96,10.0,South,9.2,-,N/A,,Clear,170,2013-04-12 18:15:00
1:35 PM,75.0,40.8,29,29.95,10.0,South,9.2,-,N/A,,Clear,170,2013-04-12 18:35:00
1:55 PM,75.4,40.6,29,29.94,10.0,SSE,8.1,-,N/A,,Clear,160,2013-04-12 18:55:00
2:15 PM,76.3,40.8,28,29.93,10.0,SSE,9.2,19.6,N/A,,Clear,160,2013-04-12 19:15:00
2:35 PM,76.8,40.8,27,29.93,10.0,SSE,9.2,17.3,N/A,,Clear,160,2013-04-12 19:35:00
2:55 PM,77.2,39.6,26,29.92,10.0,South,10.4,17.3,N/A,,Clear,180,2013-04-12 19:55:00
3:15 PM,77.5,39.0,25,29.91,10.0,SSE,10.4,16.1,N/A,,Clear,160,2013-04-12 20:15:00
3:35 PM,77.9,39.7,25,29.89,10.0,South,10.4,16.1,N/A,,Clear,170,2013-04-12 20:35:00
3:55 PM,78.4,38.8,24,29.88,10.0,South,11.5,18.4,N/A,,Clear,170,2013-04-12 20:55:00
4:15 PM,78.4,41.4,27,29.87,10.0,South,11.5,16.1,N/A,,Clear,180,2013-04-12 21:15:00
4:35 PM,78.1,39.4,25,29.87,10.0,South,10.4,-,N/A,,Clear,170,2013-04-12 21:35:00
4:55 PM,77.9,40.1,26,29.87,10.0,SSW,8.1,19.6,N/A,,Clear,200,2013-04-12 21:55:00
5:15 PM,77.4,39.7,26,29.86,10.0,SSE,9.2,-,N/A,,Clear,160,2013-04-12 22:15:00
5:35 PM,77.5,39.9,26,29.86,10.0,South,12.7,-,N/A,,Clear,170,2013-04-12 22:35:00
5:55 PM,77.4,39.6,26,29.86,10.0,South,11.5,17.3,N/A,,Clear,180,2013-04-12 22:55:00
6:15 PM,77.0,39.6,26,29.86,10.0,South,8.1,-,N/A,,Clear,180,2013-04-12 23:15:00
6:35 PM,76.5,39.2,26,29.86,10.0,SSE,11.5,-,N/A,,Clear,160,2013-04-12 23:35:00
6:55 PM,75.7,38.3,26,29.86,10.0,SSE,9.2,-,N/A,,Clear,160,2013-04-12 23:55:00
7:15 PM,74.5,39.0,28,29.86,10.0,South,10.4,-,N/A,,Clear,170,2013-04-13 00:15:00
7:35 PM,73.2,38.1,28,29.86,10.0,SSE,5.8,-,N/A,,Clear,160,2013-04-13 00:35:00
7:55 PM,71.4,38.3,30,29.87,10.0,SSE,6.9,-,N/A,,Clear,160,2013-04-13 00:55:00
8:15 PM,70.2,38.3,31,29.87,10.0,SSE,4.6,-,N/A,,Clear,150,2013-04-13 01:15:00
8:35 PM,68.5,38.5,33,29.88,10.0,SE,3.5,-,N/A,,Clear,140,2013-04-13 01:35:00
8:55 PM,67.6,38.5,34,29.89,10.0,Calm,Calm,-,N/A,,Clear,0,2013-04-13 01:55:00
9:15 PM,66.4,38.7,36,29.89,10.0,Calm,Calm,-,N/A,,Clear,0,2013-04-13 02:15:00
9:35 PM,65.3,39.2,38,29.90,10.0,Calm,Calm,-,N/A,,Clear,0,2013-04-13 02:35:00
9:55 PM,63.7,39.2,41,29.91,10.0,Calm,Calm,-,N/A,,Clear,0,2013-04-13 02:55:00
10:15 PM,63.5,39.2,41,29.93,10.0,SE,3.5,-,N/A,,Clear,130,2013-04-13 03:15:00
10:35 PM,62.8,40.1,43,29.93,10.0,SE,4.6,-,N/A,,Clear,130,2013-04-13 03:35:00
10:55 PM,63.0,40.8,44,29.94,10.0,SE,4.6,-,N/A,,Clear,130,2013-04-13 03:55:00
11:15 PM,63.5,41.9,45,29.94,10.0,SE,5.8,-,N/A,,Clear,130,2013-04-13 04:15:00
11:35 PM,63.5,42.1,46,29.95,10.0,SE,5.8,-,N/A,,Clear,140,2013-04-13 04:35:00
11:55 PM,62.6,42.4,48,29.96,10.0,SSE,5.8,-,N/A,,Clear,150,2013-04-13 04:55:00